Вернуться в каталог

SL-16 DEB

АктивенLEO
NORAD 22290·DEBRIS·🇷🇺 Russia

Запущен Dec 25, 1992 с Baikonur Cosmodrome

Loading…

Ближайшие Пролёты (ближайшие 24 часа)

TLE

СвежийSource: Space-Track

Эпоха: Sep 14, 2026, 06:44 UTC

1 22290U 92093E   26257.28108821  .00000043  00000-0  77162-4 0  9994
2 22290  71.0467 245.5280 0193248 147.3002 227.4882 13.75409276690767

Отслеживайте SL-16 DEB в реальном времени с AllMySat

Download on the App Store